Tracking 30685 objects as of 18-Jun-2025
HD Live streaming from Space Station
objects crossing your sky now

SL-14 DEB

Track SL-14 DEB now!
10-day predictions


NORAD ID: 45311
Int'l Code: 1991-056AZ
Perigee: 1,183.6 km
Apogee: 1,209.8 km
Inclination: 82.6 °
Period: 109.2 minutes
Semi major axis: 7567 km
RCS: Unknown
Launch date: August 15, 1991
Source: Commonwealth of Independent States (former USSR) (CIS)
Launch site: PLESETSK MISSILE AND SPACE COMPLEX (PKMTR)

Note: This is SATELLITE DEBRIS
Your satellite tracking list
Your tracking list is empty




NASA's NSSDC Master Catalog

Two Line Element Set (TLE):
1 45311U 91056AZ  25168.09489033  .00000179  00000-0  42316-3 0  9999
2 45311  82.5503  32.6891 0017313 306.4697  53.4830 13.18741922255483
Source of the keplerian elements: AFSPC